DHK223 UUWW-UMMS

Flight info

Callsign DHK223
Flight time 1h 14m
Altitude 38000
Route POKAG3D POKAG N858 VEPIS T526 RUHAL RUHAL2H
Aircraft MD11/H-SDE1E2E3FGHIJ2J3J4J5M1RWXY/LB1D1

Departure

Time 2026-05-01 12:42
Airport Vnukovo International Airport (UUWW)

Arrival

Time 2026-05-01 13:56
Airport Minsk National Airport (UMMS)
Time Latitude Longitude Altitude Speed Heading
2026-05-01 12:22 55.59939 37.27747 694 ft 0 kts 84°
2026-05-01 12:36 55.59940 37.27756 694 ft 3 kts 84°
2026-05-01 12:36 55.59945 37.27837 694 ft 9 kts 84°
2026-05-01 12:36 55.59948 37.27945 694 ft 7 kts 102°
2026-05-01 12:36 55.59939 37.28023 694 ft 8 kts 99°
2026-05-01 12:37 55.59936 37.28175 694 ft 16 kts 85°
2026-05-01 12:37 55.59919 37.28347 694 ft 12 kts 131°
2026-05-01 12:37 55.59869 37.28444 694 ft 8 kts 110°
2026-05-01 12:37 55.59878 37.28535 694 ft 6 kts 69°
2026-05-01 12:38 55.59905 37.28661 694 ft 16 kts 69°
2026-05-01 12:38 55.59938 37.28815 694 ft 7 kts 71°
2026-05-01 12:38 55.59940 37.28888 694 ft 4 kts 108°
2026-05-01 12:38 55.59929 37.28922 694 ft 1 kts 128°
2026-05-01 12:39 55.59919 37.28937 694 ft 0 kts 143°
2026-05-01 12:40 55.59919 37.28938 694 ft 0 kts 149°
2026-05-01 12:40 55.59883 37.28960 694 ft 14 kts 162°
2026-05-01 12:40 55.59790 37.28937 694 ft 12 kts 226°
2026-05-01 12:41 55.59740 37.28746 694 ft 35 kts 248°
2026-05-01 12:41 55.59560 37.27958 694 ft 100 kts 247°
2026-05-01 12:41 55.59241 37.26487 699 ft 152 kts 250°
2026-05-01 12:41 55.58856 37.24630 978 ft 170 kts 246°
2026-05-01 12:42 55.58382 37.22645 1468 ft 176 kts 245°
2026-05-01 12:42 55.57750 37.20777 1959 ft 181 kts 225°
2026-05-01 12:42 55.56784 37.19141 2256 ft 199 kts 220°
2026-05-01 12:42 55.55800 37.17256 2470 ft 218 kts 234°
2026-05-01 12:43 55.55115 37.14744 2878 ft 234 kts 253°
2026-05-01 12:43 55.54818 37.11910 3632 ft 236 kts 266°
2026-05-01 12:43 55.54769 37.09028 4360 ft 237 kts 272°
2026-05-01 12:43 55.55065 37.06158 4890 ft 245 kts 296°
2026-05-01 12:44 55.56069 37.03785 5612 ft 242 kts 324°
2026-05-01 12:44 55.57560 37.02510 6313 ft 240 kts 349°
2026-05-01 12:44 55.60863 37.02427 7688 ft 243 kts
2026-05-01 12:45 55.64314 37.02302 8623 ft 264 kts 348°
2026-05-01 12:45 55.65942 37.01450 9160 ft 268 kts 339°
2026-05-01 12:45 55.67661 37.00210 9788 ft 272 kts 336°
2026-05-01 12:46 55.69423 36.98885 10171 ft 279 kts 336°
2026-05-01 12:46 55.71214 36.97548 10169 ft 275 kts 336°
2026-05-01 12:46 55.72974 36.96269 10186 ft 279 kts 336°
2026-05-01 12:46 55.74819 36.94950 10359 ft 289 kts 335°
2026-05-01 12:47 55.76642 36.93558 11211 ft 282 kts 334°
2026-05-01 12:47 55.78431 36.92121 11778 ft 287 kts 331°
2026-05-01 12:47 55.80156 36.90083 11987 ft 302 kts 316°
2026-05-01 12:47 55.81525 36.87283 12600 ft 303 kts 302°
2026-05-01 12:48 55.82458 36.83916 13139 ft 308 kts 288°
2026-05-01 12:48 55.82933 36.80201 13774 ft 310 kts 277°
2026-05-01 12:48 55.82984 36.76404 14348 ft 314 kts 267°
2026-05-01 12:48 55.82663 36.72536 14944 ft 318 kts 258°
2026-05-01 12:49 55.81972 36.68754 15528 ft 323 kts 249°
2026-05-01 12:49 55.81020 36.65155 16110 ft 326 kts 246°
2026-05-01 12:49 55.79990 36.61497 16657 ft 330 kts 246°
2026-05-01 12:49 55.78954 36.57833 17215 ft 332 kts 246°
2026-05-01 12:50 55.77934 36.54206 17736 ft 336 kts 246°
2026-05-01 12:50 55.76899 36.50470 18209 ft 340 kts 249°
2026-05-01 12:50 55.76059 36.46421 18331 ft 353 kts 256°
2026-05-01 12:50 55.75421 36.42189 18778 ft 357 kts 258°
2026-05-01 12:51 55.74832 36.37863 19208 ft 362 kts 259°
2026-05-01 12:51 55.74245 36.33504 19710 ft 364 kts 258°
2026-05-01 12:51 55.73051 36.24704 20642 ft 370 kts 258°
2026-05-01 12:52 55.72438 36.20212 21111 ft 372 kts 258°
2026-05-01 12:52 55.71203 36.11215 21982 ft 378 kts 258°
2026-05-01 12:52 55.70577 36.06673 22412 ft 380 kts 258°
2026-05-01 12:53 55.69284 35.97333 23226 ft 385 kts 258°
2026-05-01 12:53 55.68639 35.92697 23626 ft 388 kts 258°
2026-05-01 12:53 55.67992 35.88053 23988 ft 391 kts 258°
2026-05-01 12:54 55.67337 35.83372 24366 ft 393 kts 258°
2026-05-01 12:54 55.66007 35.73909 25093 ft 398 kts 258°
2026-05-01 12:54 55.65330 35.69123 25442 ft 400 kts 258°
2026-05-01 12:55 55.64026 35.59846 26064 ft 405 kts 261°
2026-05-01 12:55 55.63509 35.54847 26414 ft 405 kts 264°
2026-05-01 12:55 55.63110 35.49726 26721 ft 408 kts 265°
2026-05-01 12:56 55.62766 35.44682 27044 ft 409 kts 266°
2026-05-01 12:56 55.62445 35.39617 27372 ft 411 kts 267°
2026-05-01 12:56 55.62142 35.34666 27650 ft 413 kts 266°
2026-05-01 12:56 55.61823 35.29314 27949 ft 415 kts 266°
2026-05-01 12:57 55.61510 35.24044 28247 ft 418 kts 266°
2026-05-01 12:57 55.60898 35.13590 28831 ft 421 kts 266°
2026-05-01 12:57 55.60588 35.08290 29068 ft 424 kts 266°
2026-05-01 12:58 55.60275 35.03092 29347 ft 426 kts 266°
2026-05-01 12:58 55.59956 34.97870 29622 ft 427 kts 266°
2026-05-01 12:58 55.59634 34.92567 29887 ft 429 kts 266°
2026-05-01 12:59 55.58999 34.82158 30422 ft 431 kts 265°
2026-05-01 12:59 55.58679 34.76817 30647 ft 432 kts 266°
2026-05-01 12:59 55.58134 34.67836 31174 ft 432 kts 265°
2026-05-01 13:00 55.57433 34.56350 31746 ft 433 kts 265°
2026-05-01 13:00 55.57103 34.50983 32026 ft 433 kts 266°
2026-05-01 13:01 55.56449 34.40451 32177 ft 432 kts 266°
2026-05-01 13:01 55.56126 34.35221 32183 ft 429 kts 266°
2026-05-01 13:02 55.55114 34.19470 32183 ft 430 kts 265°
2026-05-01 13:07 55.42697 33.05628 32209 ft 431 kts 257°
2026-05-01 13:08 55.41207 32.95545 32209 ft 427 kts 257°
2026-05-01 13:08 55.39714 32.85532 32208 ft 421 kts 256°
2026-05-01 13:09 55.38224 32.75598 32210 ft 422 kts 256°
2026-05-01 13:09 55.36711 32.65563 32210 ft 425 kts 256°
2026-05-01 13:10 55.35187 32.55519 32208 ft 424 kts 256°
2026-05-01 13:10 55.33661 32.45525 32208 ft 422 kts 256°
2026-05-01 13:11 55.32143 32.35654 32375 ft 420 kts 256°
2026-05-01 13:11 55.31374 32.30674 32745 ft 415 kts 256°
2026-05-01 13:11 55.30829 32.27159 33014 ft 411 kts 256°
2026-05-01 13:11 55.29959 32.21580 33446 ft 406 kts 255°
2026-05-01 13:12 55.29221 32.16870 33817 ft 400 kts 255°
2026-05-01 13:12 55.28482 32.12170 34162 ft 396 kts 255°
2026-05-01 13:12 55.27742 32.07467 34148 ft 401 kts 256°
2026-05-01 13:12 55.26997 32.02723 33906 ft 409 kts 256°
2026-05-01 13:13 55.26231 31.97860 33669 ft 412 kts 256°
2026-05-01 13:13 55.25483 31.93126 33890 ft 404 kts 256°
2026-05-01 13:13 55.24731 31.88386 34192 ft 400 kts 256°
2026-05-01 13:14 55.23212 31.78857 34212 ft 408 kts 256°
2026-05-01 13:14 55.21677 31.69254 34209 ft 411 kts 256°
2026-05-01 13:15 55.20105 31.59474 34194 ft 410 kts 256°
2026-05-01 13:15 55.18528 31.49735 34174 ft 410 kts 256°
2026-05-01 13:16 55.16974 31.40186 34155 ft 409 kts 256°
2026-05-01 13:16 55.15364 31.30363 34154 ft 409 kts 255°
2026-05-01 13:17 55.11855 31.11732 34156 ft 406 kts 244°
2026-05-01 13:18 55.08134 30.98398 34155 ft 403 kts 239°
2026-05-01 13:18 55.05056 30.90480 34102 ft 405 kts 233°
2026-05-01 13:19 55.03237 30.86509 33846 ft 408 kts 230°
2026-05-01 13:19 55.01458 30.82952 33604 ft 407 kts 229°
2026-05-01 13:19 54.97693 30.75666 33105 ft 408 kts 229°
2026-05-01 13:20 54.95789 30.72009 32859 ft 411 kts 229°
2026-05-01 13:20 54.93874 30.68338 32615 ft 414 kts 230°
2026-05-01 13:20 54.91904 30.64573 32361 ft 417 kts 230°
2026-05-01 13:21 54.88069 30.57267 32156 ft 425 kts 230°
2026-05-01 13:21 54.86024 30.53383 32159 ft 429 kts 230°
2026-05-01 13:21 54.81947 30.45659 32195 ft 433 kts 230°
2026-05-01 13:22 54.77889 30.37997 32230 ft 432 kts 230°
2026-05-01 13:22 54.73929 30.30548 31899 ft 424 kts 229°
2026-05-01 13:23 54.71956 30.26849 31302 ft 419 kts 229°
2026-05-01 13:23 54.69994 30.23179 30776 ft 413 kts 229°
2026-05-01 13:23 54.68056 30.19560 30252 ft 407 kts 229°
2026-05-01 13:23 54.66154 30.16014 29733 ft 401 kts 229°
2026-05-01 13:24 54.64276 30.12517 29220 ft 396 kts 229°
2026-05-01 13:24 54.62426 30.09075 28712 ft 392 kts 229°
2026-05-01 13:24 54.60556 30.05599 28209 ft 395 kts 229°
2026-05-01 13:25 54.56825 29.98682 27167 ft 390 kts 229°
2026-05-01 13:25 54.55030 29.95362 26672 ft 386 kts 229°
2026-05-01 13:25 54.53266 29.92102 26186 ft 381 kts 229°
2026-05-01 13:25 54.51482 29.88813 25694 ft 378 kts 229°
2026-05-01 13:26 54.49666 29.85465 25201 ft 384 kts 229°
2026-05-01 13:26 54.47860 29.82141 24685 ft 380 kts 229°
2026-05-01 13:26 54.46060 29.78835 24181 ft 376 kts 229°
2026-05-01 13:26 54.44311 29.75628 23692 ft 371 kts 229°
2026-05-01 13:27 54.42566 29.72434 23206 ft 367 kts 229°
2026-05-01 13:27 54.40811 29.69227 22718 ft 364 kts 229°
2026-05-01 13:27 54.37320 29.62852 21734 ft 366 kts 229°
2026-05-01 13:28 54.33835 29.56572 20759 ft 358 kts 228°
2026-05-01 13:28 54.32121 29.53521 20282 ft 355 kts 229°
2026-05-01 13:29 54.28759 29.47473 19337 ft 351 kts 229°
2026-05-01 13:29 54.25403 29.41404 18381 ft 350 kts 229°
2026-05-01 13:30 54.18890 29.29595 16523 ft 336 kts 228°
2026-05-01 13:31 54.15785 29.23974 15636 ft 335 kts 227°
2026-05-01 13:31 54.11925 29.14434 14270 ft 327 kts 245°
2026-05-01 13:32 54.10009 29.07460 13366 ft 321 kts 246°
2026-05-01 13:33 54.07252 28.97290 12060 ft 312 kts 246°
2026-05-01 13:33 54.05438 28.90631 11194 ft 305 kts 246°
2026-05-01 13:34 54.03669 28.84148 10373 ft 298 kts 245°
2026-05-01 13:34 54.01988 28.78028 10193 ft 270 kts 245°
2026-05-01 13:35 54.00418 28.72345 9800 ft 273 kts 245°
2026-05-01 13:35 53.99606 28.69403 9429 ft 271 kts 245°
2026-05-01 13:35 53.98014 28.63687 8793 ft 266 kts 245°
2026-05-01 13:36 53.97224 28.60860 8458 ft 263 kts 245°
2026-05-01 13:36 53.96448 28.58070 8131 ft 261 kts 245°
2026-05-01 13:36 53.94872 28.52397 7202 ft 267 kts 245°
2026-05-01 13:37 53.94084 28.49566 6862 ft 264 kts 245°
2026-05-01 13:37 53.93303 28.46772 6528 ft 262 kts 244°
2026-05-01 13:37 53.92374 28.44153 6200 ft 260 kts 234°
2026-05-01 13:37 53.91252 28.41818 5883 ft 257 kts 230°
2026-05-01 13:38 53.88627 28.37659 5308 ft 249 kts 206°
2026-05-01 13:38 53.86967 28.36955 5152 ft 250 kts 183°
2026-05-01 13:38 53.85219 28.37463 4810 ft 260 kts 158°
2026-05-01 13:39 53.83742 28.39189 4412 ft 262 kts 139°
2026-05-01 13:39 53.82404 28.41295 4198 ft 253 kts 139°
2026-05-01 13:39 53.81135 28.43250 4078 ft 239 kts 139°
2026-05-01 13:39 53.79932 28.45059 4003 ft 227 kts 140°
2026-05-01 13:40 53.78757 28.46799 4024 ft 224 kts 140°
2026-05-01 13:40 53.77575 28.48541 4021 ft 223 kts 141°
2026-05-01 13:40 53.76403 28.50262 4020 ft 224 kts 141°
2026-05-01 13:40 53.75256 28.51944 4020 ft 225 kts 141°
2026-05-01 13:41 53.74038 28.53722 4022 ft 226 kts 141°
2026-05-01 13:41 53.72769 28.55243 4013 ft 223 kts 156°
2026-05-01 13:41 53.71291 28.56014 4019 ft 223 kts 175°
2026-05-01 13:41 53.69752 28.55893 4022 ft 219 kts 195°
2026-05-01 13:42 53.68357 28.54913 4021 ft 217 kts 214°
2026-05-01 13:42 53.67216 28.53255 4029 ft 217 kts 229°
2026-05-01 13:42 53.66225 28.51268 4039 ft 219 kts 233°
2026-05-01 13:42 53.65274 28.49276 4036 ft 217 kts 232°
2026-05-01 13:43 53.64313 28.47323 4032 ft 218 kts 235°
2026-05-01 13:43 53.63640 28.45030 4017 ft 217 kts 258°
2026-05-01 13:43 53.63596 28.42497 4018 ft 216 kts 282°
2026-05-01 13:43 53.64183 28.40277 4019 ft 218 kts 307°
2026-05-01 13:44 53.65279 28.38493 4039 ft 218 kts 320°
2026-05-01 13:44 53.66435 28.36924 3981 ft 219 kts 320°
2026-05-01 13:44 53.67625 28.35308 3839 ft 218 kts 326°
2026-05-01 13:44 53.69046 28.34496 3859 ft 218 kts 357°
2026-05-01 13:45 53.70522 28.35084 3863 ft 223 kts 27°
2026-05-01 13:45 53.71663 28.36830 3854 ft 225 kts 57°
2026-05-01 13:45 53.72133 28.39366 3861 ft 227 kts 89°
2026-05-01 13:45 53.71830 28.41938 3858 ft 227 kts 117°
2026-05-01 13:46 53.70828 28.43990 3868 ft 226 kts 140°
2026-05-01 13:46 53.69627 28.45691 3852 ft 226 kts 141°
2026-05-01 13:46 53.68402 28.47390 3853 ft 224 kts 142°
2026-05-01 13:46 53.67175 28.49061 3856 ft 226 kts 141°
2026-05-01 13:47 53.65981 28.50774 3864 ft 226 kts 139°
2026-05-01 13:47 53.64792 28.52519 3854 ft 226 kts 140°
2026-05-01 13:47 53.63566 28.54173 3842 ft 224 kts 153°
2026-05-01 13:47 53.62090 28.54763 3849 ft 219 kts 186°
2026-05-01 13:48 53.60670 28.53877 3866 ft 219 kts 217°
2026-05-01 13:48 53.59644 28.52003 3857 ft 217 kts 242°
2026-05-01 13:48 53.59254 28.49585 3851 ft 215 kts 270°
2026-05-01 13:48 53.59677 28.47219 3832 ft 216 kts 305°
2026-05-01 13:49 53.60722 28.45395 3865 ft 217 kts 318°
2026-05-01 13:49 53.61898 28.43784 3858 ft 216 kts 320°
2026-05-01 13:49 53.63079 28.42228 3856 ft 217 kts 321°
2026-05-01 13:49 53.64270 28.40667 3856 ft 217 kts 321°
2026-05-01 13:50 53.65474 28.39090 3855 ft 217 kts 322°
2026-05-01 13:50 53.66697 28.37617 3852 ft 218 kts 323°
2026-05-01 13:50 53.67936 28.36105 3755 ft 221 kts 321°
2026-05-01 13:50 53.69150 28.34533 3523 ft 217 kts 320°
2026-05-01 13:51 53.70314 28.32949 3308 ft 216 kts 319°
2026-05-01 13:51 53.71458 28.31336 3168 ft 213 kts 319°
2026-05-01 13:51 53.72585 28.29715 3079 ft 211 kts 319°
2026-05-01 13:51 53.73665 28.28151 2988 ft 193 kts 318°
2026-05-01 13:52 53.74625 28.26758 3005 ft 176 kts 317°
2026-05-01 13:52 53.75549 28.25402 3023 ft 172 kts 318°
2026-05-01 13:52 53.76451 28.24080 3035 ft 174 kts 317°
2026-05-01 13:52 53.77369 28.22733 3017 ft 174 kts 317°
2026-05-01 13:53 53.78280 28.21394 3020 ft 174 kts 317°
2026-05-01 13:53 53.80102 28.18716 2741 ft 165 kts 317°
2026-05-01 13:53 53.80944 28.17483 2575 ft 156 kts 317°
2026-05-01 13:54 53.81744 28.16302 2342 ft 153 kts 317°
2026-05-01 13:54 53.82556 28.15105 2136 ft 153 kts 317°
2026-05-01 13:54 53.83367 28.13930 1891 ft 153 kts 317°
2026-05-01 13:54 53.84126 28.12746 1695 ft 149 kts 317°
2026-05-01 13:55 53.84933 28.11637 1543 ft 150 kts 320°
2026-05-01 13:55 53.85719 28.10440 1319 ft 151 kts 316°
2026-05-01 13:55 53.86518 28.09277 1097 ft 150 kts 319°
2026-05-01 13:55 53.87275 28.08158 899 ft 142 kts 317°
2026-05-01 13:56 53.88022 28.07046 749 ft 141 kts 317°
2026-05-01 13:56 53.88716 28.06001 691 ft 114 kts 316°
2026-05-01 13:56 53.89170 28.05337 690 ft 61 kts 321°
2026-05-01 13:56 53.89408 28.05005 690 ft 35 kts 318°
2026-05-01 13:57 53.89568 28.04753 690 ft 29 kts 313°
2026-05-01 13:57 53.89683 28.04540 690 ft 21 kts 297°
2026-05-01 13:57 53.89735 28.04311 690 ft 19 kts 289°
2026-05-01 13:57 53.89705 28.04178 690 ft 12 kts 189°
2026-05-01 13:58 53.89637 28.04232 690 ft 12 kts 139°
2026-05-01 13:58 53.89539 28.04383 690 ft 21 kts 136°
2026-05-01 13:58 53.89417 28.04563 690 ft 25 kts 140°
2026-05-01 13:58 53.89302 28.04736 690 ft 16 kts 133°
2026-05-01 13:59 53.89224 28.04850 690 ft 12 kts 158°
2026-05-01 13:59 53.89159 28.04787 690 ft 10 kts 228°
2026-05-01 13:59 53.89113 28.04696 690 ft 11 kts 229°
2026-05-01 13:59 53.89026 28.04528 690 ft 22 kts 229°
2026-05-01 14:00 53.88929 28.04340 690 ft 19 kts 228°
2026-05-01 14:00 53.88845 28.04181 690 ft 15 kts 229°
2026-05-01 14:00 53.88821 28.04040 690 ft 10 kts 308°
2026-05-01 14:00 53.88834 28.03944 690 ft 7 kts 245°
2026-05-01 14:01 53.88817 28.03905 690 ft 4 kts 231°
2026-05-01 14:01 53.88795 28.03861 690 ft 4 kts 229°
2026-05-01 14:01 53.88785 28.03808 690 ft 7 kts 283°
2026-05-01 14:01 53.88821 28.03746 690 ft 5 kts 320°
2026-05-01 14:02 53.88835 28.03725 690 ft 0 kts 319°